This is the latest recevied weather packets stored in our database for station/object W2GRK-15. If no packets are shown the sender has not sent any weather packets the latest 10 day(s).
| Time | Temp. | Humidity | Pressure | Rain* | Wind** | Luminosity | Snow |
|---|---|---|---|---|---|---|---|
| 1777591045 | 15° C | 59% | 1008.3 hPa | 0 mm | - | 16 W/m² | - |
| 1777590256 | 15.56° C | 57% | 1008.4 hPa | 0 mm | - | 24 W/m² | - |
| 1777590030 | 15.56° C | 57% | 1008.4 hPa | 0 mm | - | 30 W/m² | - |
| 1777589986 | 15.56° C | 59% | 1008.5 hPa | 0 mm | - | 32 W/m² | - |
| 1777589837 | 15.56° C | 58% | 1008.4 hPa | 0 mm | - | 37 W/m² | - |
| 1777589808 | 15.56° C | 58% | 1008.5 hPa | 0 mm | - | 40 W/m² | - |
| 1777588710 | 15.56° C | 59% | 1008.2 hPa | 0 mm | - | 56 W/m² | - |
| 1777588556 | 15.56° C | 59% | 1008.4 hPa | 0 mm | - | 62 W/m² | - |
| 1777588423 | 15.56° C | 59% | 1008.4 hPa | 0 mm | - | 66 W/m² | - |
| 1777588339 | 15.56° C | 59% | 1008.2 hPa | 0 mm | - | 68 W/m² | - |
| 1777588291 | 15.56° C | 58% | 1008.2 hPa | 0 mm | - | 69 W/m² | - |
| 1777588098 | 15.56° C | 59% | 1008.1 hPa | 0 mm | - | 71 W/m² | - |
| 1777587679 | 15.56° C | 58% | 1008.2 hPa | 0 mm | - | 64 W/m² | - |
| 1777587438 | 16.11° C | 57% | 1008.2 hPa | 0 mm | - | 67 W/m² | - |
| 1777587325 | 16.11° C | 58% | 1008.3 hPa | 0 mm | - | 77 W/m² | - |
| 1777587019 | 15.56° C | 58% | 1008.2 hPa | 0 mm | - | 82 W/m² | - |
| 1777586424 | 16.11° C | 58% | 1008.2 hPa | 0 mm | - | 100 W/m² | - |
| 1777586331 | 16.11° C | 58% | 1008.1 hPa | 0 mm | - | 103 W/m² | - |
| 1777586069 | 15.56° C | 60% | 1008.1 hPa | 0 mm | - | 90 W/m² | - |
| 1777586004 | 15.56° C | 60% | 1008.1 hPa | 0 mm | - | 84 W/m² | - |
| 1777585719 | 15.56° C | 61% | 1008.3 hPa | 0 mm | - | 76 W/m² | - |
| 1777585586 | 15.56° C | 63% | 1008.3 hPa | 0 mm | - | 80 W/m² | - |
| 1777585457 | 15.56° C | 62% | 1008.1 hPa | 0 mm | - | 88 W/m² | - |
| 1777585409 | 15.56° C | 63% | 1007.9 hPa | 0 mm | - | 94 W/m² | - |
| 1777585103 | 15.56° C | 62% | 1008.1 hPa | 0 mm | - | 99 W/m² | - |
* Rain latest hour (hover to see other rain measurements)
** Current wind speed in m/s (hover to see current wind gust speed)